Simultaneous Nadir Overpasses (SNOs) Predictions

Prediction of SNOs between METOP-B and NPP Satellite Orbit:

Table of predicted SNOs for the next 14.0 days since TLE Epoch: 11/19/2022
Index Date (METOP-B) Time (METOP-B) Lat,Lon (METOP-B) SZA (METOP-B ) Date (NPP) Time (NPP) Lat,Lon (NPP) SZA (NPP ) Distance(km) Time Diff (sec)
1 11/25/2022 03:44:01 -73.53, -62.42 85.82 11/25/2022 03:42:55 -73.53, -65.42 85.74 94.53 66
2 11/25/2022 04:34:45 73.31, 104.42 93.99 11/25/2022 04:33:36 73.29, 102.44 94.01 63.31 69
3 11/25/2022 05:25:29 -73.21, -88.49 86.11 11/25/2022 05:24:18 -73.19, -90.03 86.09 49.58 71
4 11/25/2022 06:16:13 72.99, 78.37 93.69 11/25/2022 06:15:00 72.99, 77.71 93.72 21.59 73
5 11/25/2022 07:06:56 -72.93,-114.42 86.36 11/25/2022 07:05:42 -72.90,-114.77 86.38 12.16 74
6 11/25/2022 07:57:38 72.81, 52.66 93.53 11/25/2022 07:56:26 72.80, 52.75 93.53 2.98 72
7 11/25/2022 08:48:20 -72.81,-140.01 86.47 11/25/2022 08:47:10 -72.81,-139.95 86.47 2.32 70
8 11/25/2022 09:39:00 72.79, 27.28 93.53 11/25/2022 09:37:56 72.81, 27.36 93.55 3.26 64
9 11/25/2022 10:29:41 -72.84,-165.29 86.43 11/25/2022 10:28:40 -72.81,-165.34 86.44 3.22 61
10 11/25/2022 11:20:21 72.82, 2.00 93.57 11/25/2022 11:19:26 72.82, 1.96 93.57 1.18 55
11 11/25/2022 12:11:03 -72.82, 169.32 86.43 11/25/2022 12:10:10 -72.82, 169.27 86.42 1.67 53
12 11/25/2022 13:01:43 72.80, -23.39 93.56 11/25/2022 13:00:55 72.77, -23.32 93.54 3.26 48
13 11/25/2022 13:52:25 -72.80, 143.94 86.44 11/25/2022 13:51:39 -72.78, 143.99 86.45 2.47 46
14 11/25/2022 14:43:05 72.77, -48.77 93.55 11/25/2022 14:42:25 72.78, -48.71 93.56 2.16 40
15 11/25/2022 15:33:47 -72.77, 118.55 86.45 11/25/2022 15:33:09 -72.79, 118.60 86.43 2.15 38
16 11/25/2022 16:24:26 72.80, -74.05 93.59 11/25/2022 16:23:55 72.79, -74.10 93.59 2.18 31
17 11/25/2022 17:15:08 -72.80, 93.27 86.41 11/25/2022 17:14:39 -72.80, 93.20 86.41 2.27 29
18 11/25/2022 18:05:48 72.78, -99.44 93.59 11/25/2022 18:05:25 72.80, -99.50 93.61 2.75 23
19 11/25/2022 18:56:30 -72.78, 67.88 86.41 11/25/2022 18:56:08 -72.75, 67.92 86.44 3.21 22
20 11/25/2022 19:47:10 72.76,-124.82 93.58 11/25/2022 19:46:54 72.76,-124.78 93.58 1.43 16
21 11/25/2022 20:37:52 -72.76, 42.50 86.42 11/25/2022 20:37:38 -72.76, 42.53 86.42 1.01 14
22 11/25/2022 21:28:32 72.74,-150.21 93.57 11/25/2022 21:28:24 72.77,-150.17 93.60 3.35 8
23 11/25/2022 22:19:13 -72.79, 17.22 86.38 11/25/2022 22:19:08 -72.77, 17.14 86.39 3.32 5
24 11/25/2022 23:09:53 72.77,-175.49 93.61 11/25/2022 23:09:54 72.77,-175.56 93.62 2.58 1
25 11/26/2022 00:00:35 -72.76, -8.17 86.39 11/26/2022 00:00:38 -72.78, -8.25 86.37 3.22 3
26 11/26/2022 00:51:15 72.74, 159.13 93.61 11/26/2022 00:51:23 72.73, 159.15 93.59 1.65 8
27 11/26/2022 01:41:57 -72.74, -33.55 86.39 11/26/2022 01:42:07 -72.73, -33.54 86.40 0.92 10
28 11/26/2022 02:32:37 72.72, 133.74 93.60 11/26/2022 02:32:53 72.74, 133.76 93.61 2.07 16
29 11/26/2022 03:23:19 -72.72, -58.94 86.40 11/26/2022 03:23:37 -72.74, -58.93 86.38 2.53 18
30 11/26/2022 04:13:58 72.75, 108.46 93.64 11/26/2022 04:14:23 72.75, 108.37 93.64 3.02 25
31 11/26/2022 05:04:40 -72.75, -84.22 86.36 11/26/2022 05:05:07 -72.75, -84.32 86.36 3.46 27
32 11/26/2022 05:55:20 72.73, 83.07 93.63 11/26/2022 05:55:52 72.71, 83.08 93.60 2.59 32
33 11/26/2022 06:46:02 -72.73,-109.60 86.37 11/26/2022 06:46:36 -72.71,-109.61 86.39 2.02 34
34 11/26/2022 07:36:42 72.71, 57.69 93.62 11/26/2022 07:37:22 72.71, 57.69 93.63 0.81 40
35 11/26/2022 08:27:24 -72.70,-134.99 86.38 11/26/2022 08:28:06 -72.72,-135.00 86.37 1.40 42
36 11/26/2022 09:18:04 72.68, 32.30 93.62 11/26/2022 09:18:51 72.67, 32.41 93.60 3.66 47
37 11/26/2022 10:08:46 -72.68,-160.37 86.38 11/26/2022 10:09:35 -72.67,-160.29 86.40 3.03 49
38 11/26/2022 10:59:26 72.66, 6.92 93.61 11/26/2022 11:00:21 72.68, 7.01 93.62 3.71 55
39 11/26/2022 11:50:07 -72.71, 174.35 86.34 11/26/2022 11:51:05 -72.68, 174.32 86.38 3.28 58
40 11/26/2022 12:40:47 72.69, -18.36 93.65 11/26/2022 12:41:51 72.69, -18.38 93.64 0.60 64
41 11/26/2022 13:31:29 -72.69, 148.96 86.35 11/26/2022 13:32:35 -72.69, 148.93 86.36 0.97 66
42 11/26/2022 14:22:09 72.67, -43.75 93.64 11/26/2022 14:23:21 72.70, -43.77 93.66 3.13 72
43 11/26/2022 15:12:51 -72.67, 123.58 86.36 11/26/2022 15:14:04 -72.65, 123.65 86.39 3.10 73
44 11/26/2022 16:03:35 72.44, -69.54 93.44 11/26/2022 16:04:47 72.50, -68.74 93.47 27.60 72
45 11/26/2022 16:54:18 -72.39, 97.68 86.61 11/26/2022 16:55:30 -72.45, 98.67 86.58 33.88 72
46 11/26/2022 17:45:03 72.11, -95.53 93.14 11/26/2022 17:46:11 72.20, -93.53 93.17 68.93 68
47 11/26/2022 18:35:46 -72.06, 71.70 86.91 11/26/2022 18:36:53 -72.11, 73.98 86.93 77.98 67



Historial Predications of SNOs between METOP-B and NPP
